• In Russia
  • List of Countries
  • For 7 days
  • Water Temperature
  • Satellite Maps
  • Weather Map
  • Weather Widgets
  • user-avatar
    Login

    Hourly Weather Ganja

    Today, 22 September, Saturday

    Time Temperature Precipitation Wind Pressure Humidity
    00:00 +20°C° 0 mm 2 mps 728 mmHg 80%
    01:00 +20°C° 0.1 mm 2 mps 728 mmHg 81%
    02:00 +21°C° 0.1 mm 1 mps 728 mmHg 83%
    03:00 +20°C° 0.1 mm 1 mps 728 mmHg 84%
    04:00 +20°C° 0 mm 1 mps 728 mmHg 84%
    05:00 +20°C° 0 mm 1 mps 728 mmHg 84%
    06:00 +18°C° 0 mm 0 mps 728 mmHg 84%
    07:00 +21°C° 0.1 mm 1 mps 728 mmHg 81%
    08:00 +22°C° 0.1 mm 1 mps 728 mmHg 78%
    09:00 +23°C° 0.1 mm 1 mps 728 mmHg 75%
    10:00 +23°C° 0.3 mm 2 mps 728 mmHg 72%
    11:00 +24°C° 0.3 mm 2 mps 727 mmHg 70%
    12:00 +25°C° 0.3 mm 2 mps 727 mmHg 68%
    13:00 +25°C° 0.7 mm 2 mps 727 mmHg 67%
    14:00 +25°C° 0.7 mm 2 mps 727 mmHg 66%
    15:00 +25°C° 0.7 mm 2 mps 727 mmHg 65%
    16:00 +25°C° 0.1 mm 2 mps 727 mmHg 68%
    17:00 +24°C° 0.1 mm 2 mps 727 mmHg 71%
    18:00 +24°C° 0.1 mm 2 mps 727 mmHg 74%
    19:00 +23°C° 0.2 mm 2 mps 727 mmHg 76%
    20:00 +23°C° 0.2 mm 2 mps 727 mmHg 79%
    21:00 +21°C° 0.2 mm 2 mps 727 mmHg 81%
    22:00 +21°C° 0.5 mm 2 mps 727 mmHg 80%
    23:00 +21°C° 0.5 mm 2 mps 727 mmHg 80%

    Tomorrow, 23 September, Sunday

    Time Temperature Precipitation Wind Pressure Humidity
    00:00 +21°C° 0.5 mm 2 mps 727 mmHg 80%
    01:00 +21°C° 0 mm 2 mps 727 mmHg 80%
    02:00 +21°C° 0 mm 1 mps 727 mmHg 80%
    03:00 +21°C° 0 mm 1 mps 727 mmHg 80%
    04:00 +21°C° 0 mm 1 mps 727 mmHg 81%
    05:00 +20°C° 0 mm 1 mps 727 mmHg 81%
    06:00 +18°C° 0 mm 0 mps 727 mmHg 81%
    07:00 +21°C° 0 mm 1 mps 727 mmHg 77%
    08:00 +22°C° 0 mm 1 mps 727 mmHg 72%
    09:00 +23°C° 0 mm 1 mps 727 mmHg 68%
    10:00 +24°C° 0 mm 1 mps 727 mmHg 65%
    11:00 +25°C° 0 mm 1 mps 726 mmHg 62%
    12:00 +26°C° 0 mm 1 mps 726 mmHg 59%
    13:00 +26°C° 0.1 mm 1 mps 725 mmHg 57%
    14:00 +27°C° 0.1 mm 1 mps 725 mmHg 55%
    15:00 +27°C° 0.1 mm 1 mps 725 mmHg 54%
    16:00 +26°C° 0.2 mm 1 mps 725 mmHg 57%
    17:00 +25°C° 0.2 mm 1 mps 725 mmHg 61%
    18:00 +24°C° 0.2 mm 1 mps 725 mmHg 64%
    19:00 +24°C° 0.3 mm 1 mps 725 mmHg 65%
    20:00 +24°C° 0.3 mm 1 mps 726 mmHg 66%
    21:00 +23°C° 0.3 mm 1 mps 726 mmHg 67%
    22:00 +23°C° 0.1 mm 1 mps 726 mmHg 68%
    23:00 +23°C° 0.1 mm 2 mps 726 mmHg 68%

    Day after tomorrow, 24 September, Monday

    Time Temperature Precipitation Wind Pressure Humidity
    00:00 +21°C° 0.1 mm 2 mps 726 mmHg 68%
    01:00 +21°C° 0 mm 2 mps 726 mmHg 68%
    02:00 +21°C° 0 mm 3 mps 726 mmHg 68%
    03:00 +20°C° 0 mm 3 mps 726 mmHg 68%
    04:00 +20°C° 0 mm 3 mps 726 mmHg 67%
    05:00 +20°C° 0 mm 3 mps 726 mmHg 66%
    06:00 +19°C° 0 mm 4 mps 726 mmHg 65%
    07:00 +21°C° 0 mm 4 mps 727 mmHg 59%
    08:00 +23°C° 0 mm 4 mps 727 mmHg 53%
    09:00 +25°C° 0 mm 5 mps 727 mmHg 47%
    10:00 +26°C° 0 mm 5 mps 727 mmHg 44%
    11:00 +27°C° 0 mm 4 mps 727 mmHg 41%
    12:00 +28°C° 0 mm 4 mps 727 mmHg 38%
    13:00 +28°C° 0 mm 4 mps 727 mmHg 38%
    14:00 +29°C° 0 mm 3 mps 726 mmHg 37%
    15:00 +29°C° 0 mm 2 mps 726 mmHg 37%
    16:00 +28°C° 0 mm 2 mps 726 mmHg 41%
    17:00 +27°C° 0 mm 2 mps 726 mmHg 44%
    18:00 +25°C° 0 mm 1 mps 727 mmHg 48%
    19:00 +25°C° 0 mm 1 mps 727 mmHg 50%
    20:00 +24°C° 0 mm 1 mps 727 mmHg 52%
    21:00 +24°C° 0 mm 2 mps 727 mmHg 55%
    22:00 +23°C° 0 mm 2 mps 727 mmHg 56%
    23:00 +21°C° 0 mm 2 mps 727 mmHg 58%

    25 September, Tuesday

    Time Temperature Precipitation Wind Pressure Humidity
    00:00 +21°C° 0 mm 2 mps 727 mmHg 59%
    01:00 +21°C° 0 mm 2 mps 727 mmHg 61%
    02:00 +21°C° 0 mm 1 mps 727 mmHg 62%
    03:00 +21°C° 0 mm 1 mps 726 mmHg 64%
    04:00 +20°C° 0 mm 1 mps 726 mmHg 63%
    05:00 +20°C° 0 mm 1 mps 726 mmHg 63%
    06:00 +20°C° 0 mm 1 mps 726 mmHg 63%
    07:00 +22°C° 0 mm 1 mps 726 mmHg 57%
    08:00 +23°C° 0 mm 2 mps 726 mmHg 52%
    09:00 +25°C° 0 mm 2 mps 726 mmHg 47%
    10:00 +26°C° 0 mm 2 mps 725 mmHg 45%
    11:00 +27°C° 0 mm 2 mps 725 mmHg 43%
    12:00 +28°C° 0 mm 2 mps 724 mmHg 41%
    13:00 +28°C° 0 mm 2 mps 724 mmHg 40%
    14:00 +29°C° 0 mm 2 mps 724 mmHg 39%
    15:00 +29°C° 0 mm 1 mps 723 mmHg 39%
    16:00 +28°C° 0 mm 1 mps 723 mmHg 43%
    17:00 +27°C° 0 mm 1 mps 723 mmHg 48%
    18:00 +26°C° 0 mm 1 mps 724 mmHg 52%
    19:00 +25°C° 0 mm 1 mps 724 mmHg 54%
    20:00 +25°C° 0 mm 1 mps 724 mmHg 56%
    21:00 +24°C° 0 mm 1 mps 725 mmHg 58%
    22:00 +24°C° 0 mm 1 mps 725 mmHg 59%
    23:00 +23°C° 0 mm 1 mps 725 mmHg 60%

    26 September, Wednesday

    Time Temperature Precipitation Wind Pressure Humidity
    00:00 +23°C° 0 mm 1 mps 725 mmHg 61%
    01:00 +22°C° 0 mm 1 mps 725 mmHg 61%
    02:00 +22°C° 0 mm 1 mps 725 mmHg 62%
    03:00 +21°C° 0 mm 1 mps 725 mmHg 62%
    04:00 +21°C° 0 mm 1 mps 725 mmHg 62%
    05:00 +20°C° 0 mm 2 mps 725 mmHg 61%
    06:00 +19°C° 0 mm 2 mps 725 mmHg 61%
    07:00 +21°C° 0 mm 2 mps 725 mmHg 55%
    08:00 +24°C° 0 mm 2 mps 726 mmHg 49%
    09:00 +25°C° 0 mm 3 mps 726 mmHg 43%
    10:00 +26°C° 0 mm 3 mps 725 mmHg 42%
    11:00 +26°C° 0 mm 2 mps 725 mmHg 41%
    12:00 +27°C° 0 mm 2 mps 725 mmHg 40%
    13:00 +27°C° 0 mm 2 mps 725 mmHg 40%
    14:00 +27°C° 0 mm 3 mps 724 mmHg 41%
    15:00 +28°C° 0 mm 3 mps 724 mmHg 41%
    16:00 +27°C° 0 mm 4 mps 724 mmHg 46%
    17:00 +26°C° 0 mm 4 mps 725 mmHg 52%
    18:00 +25°C° 0 mm 4 mps 725 mmHg 57%
    19:00 +23°C° 0.1 mm 4 mps 725 mmHg 61%
    20:00 +22°C° 0.1 mm 5 mps 725 mmHg 64%
    21:00 +22°C° 0.1 mm 5 mps 726 mmHg 68%
    22:00 +21°C° 0 mm 5 mps 725 mmHg 70%
    23:00 +21°C° 0 mm 5 mps 725 mmHg 72%

    27 September, Thursday

    Time Temperature Precipitation Wind Pressure Humidity
    00:00 +20°C° 0 mm 5 mps 725 mmHg 73%
    01:00 +20°C° 0 mm 5 mps 725 mmHg 74%
    02:00 +20°C° 0 mm 4 mps 725 mmHg 74%
    03:00 +19°C° 0 mm 4 mps 725 mmHg 74%
    04:00 +19°C° 0 mm 4 mps 725 mmHg 75%
    05:00 +19°C° 0 mm 4 mps 725 mmHg 75%
    06:00 +19°C° 0 mm 4 mps 726 mmHg 76%
    07:00 +19°C° 0 mm 4 mps 726 mmHg 73%
    08:00 +20°C° 0 mm 4 mps 726 mmHg 71%
    09:00 +20°C° 0 mm 5 mps 726 mmHg 69%
    10:00 +21°C° 0 mm 5 mps 726 mmHg 67%
    11:00 +21°C° 0 mm 5 mps 725 mmHg 65%
    12:00 +22°C° 0 mm 5 mps 725 mmHg 64%
    13:00 +22°C° 0 mm 5 mps 725 mmHg 63%
    14:00 +22°C° 0 mm 5 mps 725 mmHg 63%
    15:00 +23°C° 0 mm 5 mps 724 mmHg 62%
    16:00 +22°C° 0 mm 5 mps 725 mmHg 64%
    17:00 +22°C° 0 mm 5 mps 725 mmHg 67%
    18:00 +21°C° 0 mm 4 mps 725 mmHg 69%
    19:00 +21°C° 0 mm 5 mps 725 mmHg 71%
    20:00 +21°C° 0 mm 5 mps 725 mmHg 72%
    21:00 +20°C° 0 mm 5 mps 726 mmHg 74%
    22:00 +20°C° 0 mm 5 mps 726 mmHg 75%
    23:00 +20°C° 0 mm 5 mps 726 mmHg 77%
    Show more